Flag for Portugal Weather past 2 weeks in Ponta Delgada, Azores, Portugal

66 °F

Scattered showers. Partly cloudy.

Feels Like: 66 °F
Forecast: 67 / 70 °F
Wind: 20 mph from Northwest

Location: Ponta Delgada / Nordela Acores

Current Time: Oct 9, 2015 at 7:17:45 AM

Latest Report: Oct 9, 2015 at 6:30 AM

Visibility: 5 mi

Pressure: 29.71 "Hg

Humidity: 94%

Dew point: 64 °F

Location of Ponta DelgadaLocation

Historic Weather in Ponta Delgada — Graph


Ponta Delgada temperature yesterday

Maximum temperature yesterday: 72 °F (at 1:00 PM)
Minimum temperature yesterday: 66 °F (at 4:30 AM)
Average temperature yesterday: 69 °F

Past Weeks' High & Low Weather Summary

High77 °F (Sep 28, 11:00 AM)100% (Sep 26, 8:00 AM)30.21 "Hg (Sep 26, 8:00 AM)
Low55 °F (Oct 7, 3:30 AM)53% (Oct 6, 3:00 PM)29.53 "Hg (Oct 4, 3:00 PM)
Average68 °F80%29.91 "Hg
* Reported Sep 24 6:00 AM — Oct 9 6:00 AM, Ponta Delgada, Weather by CustomWeather, © 2015

Note: Actual official high and low records may vary slightly from our data, if they occured in-between our weather recording intervals... More about our weather records


Ponta Delgada weather history for previous 24 hours

Time TempWeatherWind HumidityBarometerVisibility
6:00 AM
Fri, Oct 9
66 °FSprinkles. Partly cloudy.23 mph94%29.68 "Hg5 mi
5:30 AM68 °FPartly cloudy.23 mph88%29.68 "HgN/A
5:00 AM68 °FPartly cloudy.22 mph88%29.68 "HgN/A
4:30 AM68 °FPartly cloudy.28 mph88%29.65 "HgN/A
4:00 AM68 °FSprinkles. Partly cloudy.22 mph88%29.68 "Hg5 mi
3:30 AM68 °FScattered showers. Partly cloudy.24 mph94%29.65 "Hg6 mi
3:00 AM68 °FPartly cloudy.24 mph94%29.65 "HgN/A
2:30 AM68 °FSprinkles. Partly cloudy.23 mph94%29.65 "Hg4 mi
2:00 AM68 °FScattered showers. Partly cloudy.23 mph94%29.65 "Hg5 mi
1:30 AM68 °FScattered showers. Partly cloudy.23 mph94%29.62 "Hg5 mi
1:00 AM68 °FSprinkles. Partly cloudy.24 mph94%29.65 "Hg4 mi
12:30 AM68 °FPartly cloudy.22 mph94%29.65 "HgN/A
12:00 AM68 °FScattered showers. Partly cloudy.23 mph94%29.65 "Hg5 mi
11:30 PM
Thu, Oct 8
68 °FSprinkles. Passing clouds.21 mph94%29.65 "Hg5 mi
11:00 PM68 °FSprinkles. Passing clouds.26 mph94%29.65 "Hg4 mi
10:30 PM70 °FPartly cloudy.23 mph88%29.65 "HgN/A
10:00 PM70 °FPartly cloudy.21 mph88%29.65 "Hg5 mi
9:30 PM70 °FSprinkles. Partly cloudy.20 mph94%29.65 "Hg4 mi
9:00 PM70 °FPartly cloudy.24 mph94%29.62 "Hg5 mi
8:30 PM72 °FPartly cloudy.24 mph88%29.62 "HgN/A
8:00 PM72 °FBroken clouds.24 mph88%29.62 "HgN/A
7:30 PM72 °FBroken clouds.26 mph94%29.62 "HgN/A
7:00 PM72 °FBroken clouds.21 mph94%29.62 "HgN/A
6:30 PM72 °FBroken clouds.20 mph94%29.62 "HgN/A
6:00 PM72 °FBroken clouds.21 mph94%29.65 "HgN/A
5:30 PM72 °FBroken clouds.21 mph94%29.65 "HgN/A
5:00 PM72 °FBroken clouds.20 mph94%29.65 "HgN/A
4:30 PM72 °FBroken clouds.21 mph94%29.65 "HgN/A
4:00 PM70 °FDrizzle. Fog.22 mph100%29.65 "Hg0 mi
3:30 PM70 °FFog.21 mph100%29.65 "Hg2 mi
3:00 PM70 °FRain. Broken clouds.17 mph94%29.68 "Hg2 mi
2:30 PM72 °FPartly sunny.18 mph88%29.71 "HgN/A
2:00 PM72 °FPartly sunny.16 mph88%29.71 "HgN/A
1:30 PM72 °FScattered clouds.17 mph88%29.74 "HgN/A
1:00 PM72 °FPartly sunny.13 mph88%29.77 "HgN/A
12:30 PM70 °FPartly sunny.16 mph88%29.77 "HgN/A
12:00 PM70 °FBroken clouds.21 mph94%29.77 "HgN/A
11:30 AM70 °FFog.18 mph94%29.80 "Hg4 mi
11:00 AM70 °FDrizzle. Fog.17 mph94%29.80 "Hg2 mi
10:30 AM70 °FScattered showers. Broken clouds.16 mph94%29.80 "Hg4 mi
10:00 AM70 °FDrizzle. Partly sunny.18 mph94%29.80 "Hg1 mi
9:30 AM70 °FBroken clouds.20 mph94%29.83 "HgN/A
9:00 AM68 °FDrizzle. Broken clouds.18 mph100%29.83 "Hg4 mi
8:30 AM68 °FPartly cloudy.17 mph100%29.80 "HgN/A
8:00 AM68 °FPartly cloudy.18 mph100%29.83 "Hg4 mi
7:30 AM68 °FDrizzle. Fog.16 mph100%29.83 "Hg3 mi
7:00 AM68 °FPartly cloudy.20 mph94%29.83 "HgN/A
Weather by CustomWeather, © 2015

See weather overviewHow to use our weather pages